Voltar ao catálogo

STARLINK-11625

AtivoComunicaçõesVLEO
NORAD 63109·PAYLOAD·🇺🇸 United States

Lançado Feb 27, 2025 de Cape Canaveral Space Force Station

Loading…

Próximas Passagens (próximas 24 horas)

TLE

AtualizadoSource: CelesTrak SupGP

Época: Sep 14, 2026, 21:32 UTC

1 63109C 25039F   26257.89770833 -.00002353  00000+0 -18279-4 0  2577
2 63109  43.0004 176.5732 0001766 253.3889 357.8604 15.70838072    16

Acompanhe STARLINK-11625 em tempo real com AllMySat

Download on the App Store